Oasis of the Seas — C6XS7 — position and weather

sailwx.info

Track history (hours):
 
Tides and Currents Weather Stations Pressure Air Temp Water Temp Dewpoint Dewpoint Depression Visibility Wind Speed Wind Dir Waves Ship Positions

Oasis of the Seas

Last reported at 2017-Feb-19 05:33 UTC. Time now 2017-Feb-22 04:28 UTC.
Position N 26°59' W 079°46'.

Length 360 m; draft 9.3 m.

Type: Passenger vessel. MMSI: 311020600.

Date/timePositionNaut miles runAvg speedWind from/ knotsBaromVisibWave heightAir tempDewpointWater temp
2017-Feb-19 05:33N 26°59' W 079°46'3424.0
2017-Feb-19 04:09N 26°25' W 079°47'1524.7
2017-Feb-19 03:33N 26°11' W 079°48'2424.1
2017-Feb-19 02:33N 25°47' W 079°52'2423.3
2017-Feb-19 01:33N 25°23' W 079°56'3824.7
2017-Feb-19 00:00N 24°48' W 080°12'45222.8 120 / 151016.010.8 24.8 28.6
2017-Feb-18 04:12N 20°35' W 086°58'6 9.0
2017-Feb-18 03:32N 20°29' W 086°59'0 0.0
2017-Feb-18 02:32N 20°29' W 086°59'0 0.0
2017-Feb-18 01:32N 20°29' W 086°59'0 0.0
2017-Feb-18 00:32N 20°29' W 086°59'0 0.0
2017-Feb-17 23:32N 20°29' W 086°59'0 0.0
2017-Feb-17 22:32N 20°29' W 086°59'0 0.0
2017-Feb-17 21:32N 20°29' W 086°59'0 0.0
2017-Feb-17 20:32N 20°29' W 086°59'0 0.0
2017-Feb-17 19:32N 20°29' W 086°59'0 0.0
2017-Feb-17 18:32N 20°29' W 086°59'0 0.0
2017-Feb-17 17:32N 20°29' W 086°59'0 0.0
2017-Feb-17 16:32N 20°29' W 086°59'0 0.0
2017-Feb-17 15:32N 20°29' W 086°59'0 0.0
2017-Feb-17 14:32N 20°29' W 086°59'0 0.0
2017-Feb-17 13:32N 20°29' W 086°59'0 0.0
2017-Feb-17 12:32N 20°29' W 086°59'0 0.3
2017-Feb-17 11:34N 20°29' W 086°59'26214.9
2017-Feb-16 18:00N 19°42' W 082°24'   190 / 81017.010.8 27.1 29.4
2017-Feb-13 18:00N 24°36' W 075°12'   320 / 61016.010.8 25.0 27.4
2017-Feb-10 22:00N 22°36' W 070°06'9523.7 040 / 301022.010.8 24.8 28.1
2017-Feb-10 18:00N 21°42' W 068°42'37119.7 010 / 221020.010.8 25.3 28.4
2017-Feb-09 23:09N 18°07' W 063°20'1218.4
2017-Feb-09 22:30N 18°01' W 063°09'6 0.6
2017-Feb-09 12:20N 18°00' W 063°03'6 7.4
2017-Feb-09 11:28N 18°00' W 063°10'10 9.6
2017-Feb-09 10:29N 18°00' W 063°20'9 9.5
2017-Feb-09 09:30N 18°00' W 063°30'  
Track history (hours):
 
Tides and Currents Weather Stations Pressure Air Temp Water Temp Dewpoint Dewpoint Depression Visibility Wind Speed Wind Dir Waves Ship Positions

Oasis of the Seas

Last reported at 2017-Feb-19 05:33 UTC. Time now 2017-Feb-22 04:28 UTC.
Position N 26°59' W 079°46'.

Length 360 m; draft 9.3 m.

Type: Passenger vessel. MMSI: 311020600.

Date/timePositionNaut miles runAvg speedWind from/ knotsBaromVisibWave heightAir tempDewpointWater temp
2017-Feb-19 05:33N 26°59' W 079°46'3424.0
2017-Feb-19 04:09N 26°25' W 079°47'1524.7
2017-Feb-19 03:33N 26°11' W 079°48'2424.1
2017-Feb-19 02:33N 25°47' W 079°52'2423.3
2017-Feb-19 01:33N 25°23' W 079°56'3824.7
2017-Feb-19 00:00N 24°48' W 080°12'45222.8 120 / 151016.010.8 24.8 28.6
2017-Feb-18 04:12N 20°35' W 086°58'6 9.0
2017-Feb-18 03:32N 20°29' W 086°59'0 0.0
2017-Feb-18 02:32N 20°29' W 086°59'0 0.0
2017-Feb-18 01:32N 20°29' W 086°59'0 0.0
2017-Feb-18 00:32N 20°29' W 086°59'0 0.0
2017-Feb-17 23:32N 20°29' W 086°59'0 0.0
2017-Feb-17 22:32N 20°29' W 086°59'0 0.0
2017-Feb-17 21:32N 20°29' W 086°59'0 0.0
2017-Feb-17 20:32N 20°29' W 086°59'0 0.0
2017-Feb-17 19:32N 20°29' W 086°59'0 0.0
2017-Feb-17 18:32N 20°29' W 086°59'0 0.0
2017-Feb-17 17:32N 20°29' W 086°59'0 0.0
2017-Feb-17 16:32N 20°29' W 086°59'0 0.0
2017-Feb-17 15:32N 20°29' W 086°59'0 0.0
2017-Feb-17 14:32N 20°29' W 086°59'0 0.0
2017-Feb-17 13:32N 20°29' W 086°59'0 0.0
2017-Feb-17 12:32N 20°29' W 086°59'0 0.3
2017-Feb-17 11:34N 20°29' W 086°59'26214.9
2017-Feb-16 18:00N 19°42' W 082°24'   190 / 81017.010.8 27.1 29.4
2017-Feb-13 18:00N 24°36' W 075°12'   320 / 61016.010.8 25.0 27.4
2017-Feb-10 22:00N 22°36' W 070°06'9523.7 040 / 301022.010.8 24.8 28.1
2017-Feb-10 18:00N 21°42' W 068°42'37119.7 010 / 221020.010.8 25.3 28.4
2017-Feb-09 23:09N 18°07' W 063°20'1218.4
2017-Feb-09 22:30N 18°01' W 063°09'6 0.6
2017-Feb-09 12:20N 18°00' W 063°03'6 7.4
2017-Feb-09 11:28N 18°00' W 063°10'10 9.6
2017-Feb-09 10:29N 18°00' W 063°20'9 9.5
2017-Feb-09 09:30N 18°00' W 063°30'  

Dump ship's entire track history